OAL117 LGTS-LGHI

Flight info

Callsign OAL117
Flight time 0h 45m
Altitude 31000
Route ARNAS M603 PEREN N128 LMO L618 MES
Aircraft A320/M-SDE3FGHIRWY/LB1

Departure

Time 2026-04-25 22:48
Airport Thessaloniki Macedonia International Airport (LGTS)

Arrival

Time 2026-04-25 23:33
Airport Chios Island National Airport (LGHI)
Time Latitude Longitude Altitude Speed Heading
2026-04-25 22:28 40.52433 22.97429 28 ft 0 kts 44°
2026-04-25 22:34 40.52431 22.97427 28 ft 4 kts 44°
2026-04-25 22:35 40.52414 22.97404 28 ft 4 kts 44°
2026-04-25 22:35 40.52399 22.97379 28 ft 4 kts 85°
2026-04-25 22:35 40.52405 22.97348 28 ft 2 kts 131°
2026-04-25 22:35 40.52390 22.97368 28 ft 3 kts 135°
2026-04-25 22:36 40.52387 22.97371 28 ft 0 kts 135°
2026-04-25 22:39 40.52387 22.97372 28 ft 1 kts 135°
2026-04-25 22:39 40.52379 22.97369 28 ft 1 kts 211°
2026-04-25 22:39 40.52372 22.97350 28 ft 7 kts 240°
2026-04-25 22:40 40.52380 22.97267 28 ft 11 kts 278°
2026-04-25 22:40 40.52357 22.97167 28 ft 13 kts 226°
2026-04-25 22:40 40.52267 22.97109 28 ft 16 kts 200°
2026-04-25 22:40 40.52188 22.97002 27 ft 17 kts 266°
2026-04-25 22:41 40.52194 22.96857 29 ft 16 kts 273°
2026-04-25 22:41 40.52206 22.96708 29 ft 15 kts 279°
2026-04-25 22:41 40.52235 22.96566 29 ft 17 kts 286°
2026-04-25 22:41 40.52275 22.96404 29 ft 20 kts 288°
2026-04-25 22:42 40.52312 22.96215 29 ft 23 kts 280°
2026-04-25 22:42 40.52333 22.96074 29 ft 15 kts 283°
2026-04-25 22:42 40.52360 22.95933 29 ft 18 kts 284°
2026-04-25 22:42 40.52392 22.95765 29 ft 20 kts 284°
2026-04-25 22:43 40.52423 22.95619 29 ft 6 kts 286°
2026-04-25 22:43 40.52446 22.95502 29 ft 26 kts 283°
2026-04-25 22:43 40.52491 22.95253 29 ft 29 kts 284°
2026-04-25 22:43 40.52537 22.95027 29 ft 19 kts 285°
2026-04-25 22:44 40.52555 22.94874 29 ft 6 kts 249°
2026-04-25 22:44 40.52522 22.94832 29 ft 0 kts 204°
2026-04-25 22:46 40.52503 22.94820 29 ft 8 kts 204°
2026-04-25 22:46 40.52440 22.94805 30 ft 11 kts 172°
2026-04-25 22:46 40.52403 22.94850 30 ft 1 kts 110°
2026-04-25 22:46 40.52398 22.94868 29 ft 1 kts 110°
2026-04-25 22:47 40.52375 22.94953 29 ft 27 kts 108°
2026-04-25 22:47 40.52285 22.95392 27 ft 81 kts 101°
2026-04-25 22:47 40.52108 22.96374 33 ft 136 kts 103°
2026-04-25 22:47 40.51853 22.97702 337 ft 153 kts 105°
2026-04-25 22:48 40.51531 22.99049 917 ft 156 kts 109°
2026-04-25 22:48 40.51252 23.00225 1466 ft 157 kts 104°
2026-04-25 22:48 40.51022 23.01554 1949 ft 167 kts 103°
2026-04-25 22:48 40.50833 23.02714 2200 ft 184 kts 102°
2026-04-25 22:49 40.50544 23.04474 2548 ft 210 kts 102°
2026-04-25 22:49 40.50209 23.06451 3006 ft 233 kts 102°
2026-04-25 22:49 40.49836 23.08591 3720 ft 243 kts 102°
2026-04-25 22:49 40.49447 23.10775 4639 ft 246 kts 102°
2026-04-25 22:50 40.49056 23.12949 5547 ft 249 kts 102°
2026-04-25 22:50 40.48727 23.15191 6483 ft 250 kts 90°
2026-04-25 22:50 40.48953 23.17441 7368 ft 250 kts 69°
2026-04-25 22:50 40.49770 23.19450 8266 ft 251 kts 54°
2026-04-25 22:51 40.50429 23.20704 8868 ft 252 kts 54°
2026-04-25 22:51 40.51426 23.22616 9777 ft 254 kts 57°
2026-04-25 22:51 40.52332 23.25591 10444 ft 278 kts 79°
2026-04-25 22:51 40.52457 23.28204 10867 ft 297 kts 87°
2026-04-25 22:52 40.52513 23.31026 11086 ft 321 kts 87°
2026-04-25 22:52 40.52550 23.33053 11278 ft 334 kts 87°
2026-04-25 22:52 40.52603 23.36143 11865 ft 342 kts 87°
2026-04-25 22:52 40.52657 23.39289 12579 ft 346 kts 87°
2026-04-25 22:53 40.52710 23.42461 13307 ft 350 kts 87°
2026-04-25 22:53 40.52766 23.45645 14006 ft 353 kts 87°
2026-04-25 22:53 40.52920 23.48849 14620 ft 356 kts 80°
2026-04-25 22:53 40.53371 23.52070 15248 ft 359 kts 78°
2026-04-25 22:54 40.53838 23.55326 15869 ft 362 kts 78°
2026-04-25 22:54 40.54307 23.58594 16491 ft 365 kts 78°
2026-04-25 22:54 40.54773 23.61860 17115 ft 368 kts 78°
2026-04-25 22:54 40.55248 23.65196 17755 ft 372 kts 78°
2026-04-25 22:55 40.55726 23.68556 18382 ft 376 kts 78°
2026-04-25 22:55 40.56207 23.71948 18964 ft 379 kts 78°
2026-04-25 22:55 40.56689 23.75373 19581 ft 382 kts 78°
2026-04-25 22:55 40.57171 23.78825 20201 ft 385 kts 78°
2026-04-25 22:56 40.57655 23.82296 20813 ft 387 kts 78°
2026-04-25 22:56 40.58143 23.85799 21395 ft 390 kts 78°
2026-04-25 22:56 40.58629 23.89292 21932 ft 393 kts 79°
2026-04-25 22:56 40.58855 23.92900 22465 ft 397 kts 89°
2026-04-25 22:57 40.58534 23.96538 22985 ft 403 kts 100°
2026-04-25 22:57 40.57661 24.00058 23503 ft 409 kts 111°
2026-04-25 22:57 40.56249 24.03341 23945 ft 414 kts 122°
2026-04-25 22:57 40.54607 24.06469 24375 ft 416 kts 122°
2026-04-25 22:58 40.52977 24.09566 24805 ft 418 kts 122°
2026-04-25 22:58 40.51316 24.12721 25231 ft 419 kts 122°
2026-04-25 22:58 40.49650 24.15884 25666 ft 421 kts 122°
2026-04-25 22:58 40.47981 24.19050 26064 ft 422 kts 122°
2026-04-25 22:59 40.46303 24.22233 26476 ft 424 kts 122°
2026-04-25 22:59 40.44620 24.25433 26894 ft 425 kts 122°
2026-04-25 22:59 40.42932 24.28638 27303 ft 427 kts 122°
2026-04-25 22:59 40.41232 24.31855 27711 ft 429 kts 122°
2026-04-25 23:00 40.39548 24.35032 28112 ft 430 kts 122°
2026-04-25 23:00 40.37832 24.38271 28506 ft 432 kts 122°
2026-04-25 23:00 40.36109 24.41529 28896 ft 433 kts 121°
2026-04-25 23:00 40.34380 24.44794 29270 ft 435 kts 122°
2026-04-25 23:01 40.32667 24.48017 29625 ft 437 kts 122°
2026-04-25 23:01 40.30920 24.51298 30019 ft 437 kts 122°
2026-04-25 23:01 40.29172 24.54573 30495 ft 435 kts 122°
2026-04-25 23:01 40.27464 24.57772 30897 ft 434 kts 122°
2026-04-25 23:02 40.25736 24.61016 31015 ft 431 kts 122°
2026-04-25 23:02 40.24023 24.64228 31031 ft 428 kts 122°
2026-04-25 23:02 40.20613 24.70604 31029 ft 426 kts 122°
2026-04-25 23:03 40.17231 24.76918 31035 ft 426 kts 122°
2026-04-25 23:03 40.13836 24.83241 31031 ft 415 kts 122°
2026-04-25 23:04 40.12209 24.86268 31030 ft 398 kts 122°
2026-04-25 23:04 40.10644 24.89171 31025 ft 383 kts 122°
2026-04-25 23:04 40.09135 24.91966 31026 ft 369 kts 121°
2026-04-25 23:04 40.07687 24.94643 31021 ft 357 kts 121°
2026-04-25 23:05 40.06276 24.97251 31020 ft 345 kts 121°
2026-04-25 23:05 40.04938 24.99727 31016 ft 332 kts 121°
2026-04-25 23:05 40.02307 25.04610 31015 ft 326 kts 121°
2026-04-25 23:06 39.99702 25.09439 31005 ft 325 kts 121°
2026-04-25 23:06 39.97102 25.14229 31002 ft 325 kts 121°
2026-04-25 23:07 39.94436 25.19005 31001 ft 327 kts 126°
2026-04-25 23:07 39.91047 25.23031 31005 ft 333 kts 141°
2026-04-25 23:08 39.86890 25.25801 31005 ft 340 kts 156°
2026-04-25 23:08 39.82359 25.27662 31005 ft 341 kts 157°
2026-04-25 23:09 39.77846 25.29504 31007 ft 341 kts 157°
2026-04-25 23:09 39.73303 25.31361 31011 ft 341 kts 157°
2026-04-25 23:10 39.68784 25.33203 31015 ft 342 kts 157°
2026-04-25 23:10 39.64237 25.35057 31018 ft 341 kts 157°
2026-04-25 23:11 39.59700 25.36904 31023 ft 341 kts 157°
2026-04-25 23:11 39.55163 25.38751 31025 ft 341 kts 157°
2026-04-25 23:12 39.50658 25.40584 31021 ft 341 kts 157°
2026-04-25 23:12 39.46136 25.42422 31021 ft 341 kts 157°
2026-04-25 23:13 39.41550 25.44288 30118 ft 357 kts 158°
2026-04-25 23:13 39.39142 25.45270 29338 ft 366 kts 158°
2026-04-25 23:13 39.36728 25.46246 28805 ft 368 kts 158°
2026-04-25 23:14 39.34275 25.47232 28247 ft 371 kts 159°
2026-04-25 23:14 39.31793 25.48226 27684 ft 373 kts 159°
2026-04-25 23:14 39.29300 25.49227 27113 ft 377 kts 159°
2026-04-25 23:14 39.26808 25.50230 26536 ft 380 kts 160°
2026-04-25 23:15 39.24273 25.51249 25965 ft 383 kts 160°
2026-04-25 23:15 39.21708 25.52281 25384 ft 387 kts 160°
2026-04-25 23:15 39.19118 25.53322 24786 ft 391 kts 160°
2026-04-25 23:15 39.16508 25.54372 24202 ft 394 kts 160°
2026-04-25 23:16 39.13875 25.55433 23606 ft 398 kts 161°
2026-04-25 23:16 39.11249 25.56490 22956 ft 400 kts 161°
2026-04-25 23:16 39.08581 25.57560 22367 ft 400 kts 161°
2026-04-25 23:16 39.05915 25.58628 21789 ft 400 kts 161°
2026-04-25 23:17 39.03260 25.59690 21232 ft 399 kts 161°
2026-04-25 23:17 39.00615 25.60750 20692 ft 398 kts 161°
2026-04-25 23:17 38.98004 25.61796 20165 ft 396 kts 161°
2026-04-25 23:17 38.95366 25.62847 19634 ft 395 kts 161°
2026-04-25 23:18 38.92738 25.63892 19106 ft 393 kts 161°
2026-04-25 23:18 38.90125 25.64926 18564 ft 392 kts 161°
2026-04-25 23:18 38.87548 25.65946 17972 ft 390 kts 161°
2026-04-25 23:18 38.84950 25.66978 17398 ft 387 kts 161°
2026-04-25 23:19 38.82379 25.68002 16828 ft 384 kts 161°
2026-04-25 23:19 38.79830 25.69018 16239 ft 381 kts 161°
2026-04-25 23:19 38.77300 25.70026 15659 ft 378 kts 161°
2026-04-25 23:19 38.74795 25.71022 15068 ft 376 kts 161°
2026-04-25 23:20 38.72308 25.72011 14483 ft 373 kts 161°
2026-04-25 23:20 38.69861 25.72980 13892 ft 371 kts 161°
2026-04-25 23:20 38.67397 25.73953 13258 ft 368 kts 161°
2026-04-25 23:20 38.64973 25.74912 12676 ft 364 kts 161°
2026-04-25 23:21 38.62563 25.75869 12090 ft 360 kts 161°
2026-04-25 23:21 38.60173 25.76818 11512 ft 357 kts 161°
2026-04-25 23:21 38.57845 25.77739 10964 ft 353 kts 161°
2026-04-25 23:21 38.55488 25.78668 10601 ft 344 kts 161°
2026-04-25 23:22 38.53276 25.79535 10529 ft 328 kts 161°
2026-04-25 23:22 38.51141 25.80370 10414 ft 314 kts 161°
2026-04-25 23:22 38.49087 25.81175 10282 ft 303 kts 161°
2026-04-25 23:23 38.45182 25.82714 10023 ft 283 kts 161°
2026-04-25 23:23 38.43336 25.83442 9996 ft 270 kts 161°
2026-04-25 23:23 38.41587 25.84130 9979 ft 257 kts 161°
2026-04-25 23:23 38.39851 25.84815 9355 ft 269 kts 161°
2026-04-25 23:24 38.38018 25.85541 8586 ft 284 kts 161°
2026-04-25 23:24 38.36094 25.86302 8015 ft 291 kts 161°
2026-04-25 23:24 38.34175 25.87056 7549 ft 293 kts 162°
2026-04-25 23:24 38.32217 25.87821 7120 ft 295 kts 162°
2026-04-25 23:25 38.30229 25.88597 6672 ft 296 kts 162°
2026-04-25 23:25 38.28254 25.89370 6212 ft 297 kts 162°
2026-04-25 23:25 38.26295 25.90136 5993 ft 289 kts 162°
2026-04-25 23:25 38.24495 25.91053 5862 ft 278 kts 146°
2026-04-25 23:26 38.23070 25.92757 5243 ft 285 kts 128°
2026-04-25 23:26 38.21931 25.94801 4675 ft 280 kts 120°
2026-04-25 23:26 38.20945 25.96904 4126 ft 274 kts 118°
2026-04-25 23:26 38.20007 25.98986 3593 ft 269 kts 117°
2026-04-25 23:27 38.19074 26.01021 3072 ft 264 kts 118°
2026-04-25 23:27 38.18146 26.02978 2853 ft 249 kts 119°
2026-04-25 23:27 38.17272 26.04767 2790 ft 227 kts 119°
2026-04-25 23:27 38.16467 26.06389 2662 ft 209 kts 118°
2026-04-25 23:28 38.15986 26.08083 2624 ft 203 kts 87°
2026-04-25 23:28 38.16387 26.09752 2582 ft 197 kts 52°
2026-04-25 23:28 38.17419 26.10732 2553 ft 180 kts 19°
2026-04-25 23:28 38.18604 26.11011 2481 ft 167 kts 10°
2026-04-25 23:29 38.19699 26.11219 2402 ft 150 kts 10°
2026-04-25 23:29 38.20689 26.11409 2356 ft 140 kts 11°
2026-04-25 23:29 38.21633 26.11591 2323 ft 136 kts 11°
2026-04-25 23:29 38.22560 26.11771 2192 ft 134 kts 11°
2026-04-25 23:30 38.23477 26.11950 2005 ft 132 kts
2026-04-25 23:30 38.24270 26.12103 1851 ft 131 kts
2026-04-25 23:30 38.25174 26.12275 1694 ft 131 kts 10°
2026-04-25 23:30 38.26081 26.12449 1505 ft 132 kts
2026-04-25 23:31 38.26981 26.12623 1330 ft 132 kts
2026-04-25 23:31 38.27885 26.12798 1164 ft 131 kts
2026-04-25 23:31 38.28788 26.12973 995 ft 131 kts
2026-04-25 23:31 38.29392 26.13087 901 ft 132 kts
2026-04-25 23:32 38.30312 26.13242 756 ft 133 kts
2026-04-25 23:32 38.31227 26.13418 565 ft 134 kts
2026-04-25 23:32 38.32143 26.13604 333 ft 133 kts
2026-04-25 23:32 38.33049 26.13793 197 ft 132 kts
2026-04-25 23:33 38.33960 26.13981 39 ft 130 kts
2026-04-25 23:33 38.34693 26.14126 29 ft 58 kts 10°
2026-04-25 23:33 38.34899 26.14174 30 ft 24 kts 12°
2026-04-25 23:33 38.34999 26.14202 30 ft 5 kts 319°
2026-04-25 23:34 38.34990 26.14193 31 ft 2 kts 198°
2026-04-25 23:34 38.34967 26.14187 33 ft 6 kts 190°
2026-04-25 23:34 38.34904 26.14177 30 ft 11 kts 187°
2026-04-25 23:34 38.34815 26.14159 31 ft 14 kts 189°
2026-04-25 23:35 38.34706 26.14134 32 ft 17 kts 191°
2026-04-25 23:35 38.34596 26.14114 33 ft 4 kts 178°
2026-04-25 23:35 38.34571 26.14127 29 ft 6 kts 155°
2026-04-25 23:35 38.34506 26.14174 26 ft 15 kts 149°
2026-04-25 23:36 38.34460 26.14242 26 ft 0 kts 88°
2026-04-25 23:36 38.34460 26.14246 26 ft 0 kts 88°